Evansville, IN

6:35 PM CDT on July 24, 2017 (GMT -0500)
Evansville Regional

Weather History for KEVV - October, 2013

Change the Weather History Date:

Monday, October 21, 2013

  Actual Average Record
Temperature  
Mean Temperature 56 °F 56 °F  
Max Temperature 67 °F 68 °F 90 °F (1963)
Min Temperature 44 °F 44 °F 26 °F (1952)
Degree Days  
Heating Degree Days 9 9  
Month to date heating degree days 93 147  
Since 1 July heating degree days 103 194  
Cooling Degree Days 0 1  
Month to date cooling degree days 55 28  
Year to date cooling degree days 1462 1394  
Growing Degree Days 5 (Base 50)    
Moisture  
Dew Point 44 °F    
Average Humidity 68    
Maximum Humidity 83    
Minimum Humidity 52    
Precipitation  
Precipitation 0.01 in 0.11 in 1.10 in (1919)
Month to date precipitation 4.84 2.15  
Year to date precipitation 42.98 36.12  
Snow  
Snow 0.00 in 0.00 in 0.00 in (2002)
Month to date snowfall 0.0 0.1  
Since 1 July snowfall 0.0 0.1  
Since 1 September snowfall 0.0 0.1  
Snow Depth 0.00 in    
Sea Level Pressure  
Sea Level Pressure 30.00 in    
Wind  
Wind Speed 7 mph (WSW)    
Max Wind Speed 16 mph    
Max Gust Speed 21 mph    
Visibility 10 miles    
Events Rain    
T = Trace of Precipitation, MM = Missing Value Source: NWS Daily Summary

Daily Weather History Graph

Daily Weather History Graph

Search for Another Location

Airport or City:

Trip Planner

Search our weather history database for the weather conditions in past years. The results will help you decide how hot, cold, wet, or windy it might be!

Date:

Astronomy

Oct. 21, 2013 Rise Set
Actual Time 7:04 AM CDT 6:03 PM CDT
Civil Twilight 6:38 AM CDT 6:30 PM CDT
Nautical Twilight 6:07 AM CDT 7:01 PM CDT
Astronomical Twilight 5:36 AM CDT 7:31 PM CDT
Moon 7:58 PM CDT (10/21) 9:37 AM CDT (10/21)
Length of Visible Light 11h 52m
Length of Day
10h 59m
Waning Gibbous, 92% of the Moon is Illuminated
Oct 21
Waning Gibbous
Oct 26
Last Quarter
Nov 3
New
Nov 9
First Quarter
Nov 17
Full

Hourly Weather History & Observations

Time (CDT) Temp. Dew Point Humidity Pressure Visibility Wind Dir Wind Speed Gust Speed Precip Events Conditions
12:54 AM 50.0 °F 41.0 °F 71% 30.01 in 10.0 mi South 3.5 mph - N/A   Clear
1:54 AM 50.0 °F 41.0 °F 71% 30.01 in 10.0 mi South 4.6 mph - N/A   Clear
2:54 AM 46.9 °F 41.0 °F 80% 30.01 in 10.0 mi Calm Calm - N/A   Clear
3:54 AM 44.1 °F 39.9 °F 85% 30.01 in 10.0 mi Calm Calm - N/A   Clear
4:54 AM 46.9 °F 41.0 °F 80% 30.02 in 10.0 mi South 4.6 mph - N/A   Clear
5:54 AM 46.9 °F 41.0 °F 80% 30.01 in 10.0 mi South 4.6 mph - N/A   Clear
6:54 AM 46.9 °F 41.0 °F 80% 30.01 in 10.0 mi South 5.8 mph - N/A   Clear
7:54 AM 48.0 °F 42.1 °F 80% 30.02 in 10.0 mi SSW 5.8 mph - N/A   Clear
8:54 AM 53.1 °F 44.1 °F 71% 30.02 in 10.0 mi SSW 8.1 mph - N/A   Clear
9:54 AM 57.9 °F 46.0 °F 65% 30.02 in 10.0 mi SW 11.5 mph - N/A   Clear
10:54 AM 62.1 °F 46.0 °F 56% 30.01 in 10.0 mi SW 11.5 mph - N/A   Partly Cloudy
11:54 AM 63.0 °F 45.0 °F 52% 30.00 in 10.0 mi WSW 13.8 mph 20.7 mph N/A   Mostly Cloudy
12:54 PM 62.1 °F 46.0 °F 56% 29.99 in 10.0 mi SW 11.5 mph - 0.00 in   Overcast
1:54 PM 64.0 °F 46.9 °F 54% 29.97 in 10.0 mi WSW 13.8 mph - N/A   Overcast
2:54 PM 64.9 °F 46.9 °F 52% 29.95 in 10.0 mi SW 10.4 mph - N/A   Partly Cloudy
3:54 PM 64.9 °F 46.9 °F 52% 29.95 in 10.0 mi WSW 13.8 mph - N/A   Mostly Cloudy
4:54 PM 63.0 °F 48.0 °F 58% 29.96 in 10.0 mi West 11.5 mph - N/A   Overcast
5:54 PM 60.1 °F 46.9 °F 62% 29.97 in 10.0 mi NW 6.9 mph - N/A   Mostly Cloudy
6:54 PM 55.9 °F 46.0 °F 69% 29.99 in 10.0 mi NW 9.2 mph - N/A   Scattered Clouds
7:54 PM 54.0 °F 46.0 °F 75% 30.01 in 10.0 mi NW 5.8 mph - 0.00 in Rain Light Rain
8:54 PM 52.0 °F 46.0 °F 80% 30.02 in 10.0 mi NNW 6.9 mph - 0.00 in Rain Light Rain
9:54 PM 50.0 °F 44.1 °F 80% 30.03 in 10.0 mi NW 4.6 mph - 0.01 in Rain Light Rain
10:54 PM 48.9 °F 44.1 °F 83% 30.05 in 10.0 mi NW 3.5 mph - 0.00 in Rain Light Rain
11:54 PM 48.0 °F 37.0 °F 66% 30.06 in 10.0 mi North 6.9 mph - 0.00 in   Overcast